Hourly Weather Holstovo

Today, 11 April, Sunday

Time Temperature Precipitation Wind Pressure Humidity
00:00 +3°C° 0 mm 4 mps 753 mmHg 76%
01:00 +2°C° 0 mm 3 mps 753 mmHg 78%
02:00 +2°C° 0 mm 3 mps 754 mmHg 79%
03:00 +2°C° 0 mm 3 mps 754 mmHg 82%
04:00 +2°C° 0 mm 2 mps 755 mmHg 85%
05:00 +2°C° 0 mm 2 mps 755 mmHg 88%
06:00 +3°C° 0 mm 2 mps 756 mmHg 86%
07:00 +6°C° 0 mm 1 mps 756 mmHg 83%
08:00 +7°C° 0 mm 1 mps 757 mmHg 81%
09:00 +8°C° 0 mm 1 mps 757 mmHg 78%
10:00 +8°C° 0 mm 2 mps 757 mmHg 75%
11:00 +9°C° 0 mm 2 mps 758 mmHg 73%
12:00 +10°C° 0 mm 1 mps 758 mmHg 72%
13:00 +10°C° 0 mm 1 mps 758 mmHg 72%
14:00 +11°C° 0 mm 1 mps 758 mmHg 72%
15:00 +10°C° 0 mm 1 mps 759 mmHg 76%
16:00 +9°C° 0 mm 1 mps 759 mmHg 81%
17:00 +9°C° 0 mm 1 mps 759 mmHg 85%
18:00 +8°C° 0 mm 1 mps 759 mmHg 86%
19:00 +8°C° 0 mm 1 mps 760 mmHg 87%
20:00 +7°C° 0 mm 2 mps 760 mmHg 89%
21:00 +7°C° 0 mm 2 mps 760 mmHg 89%
22:00 +6°C° 0 mm 2 mps 760 mmHg 89%
23:00 +6°C° 0 mm 2 mps 761 mmHg 90%

Tomorrow, 12 April, Monday

Time Temperature Precipitation Wind Pressure Humidity
00:00 +6°C° 0 mm 2 mps 761 mmHg 89%
01:00 +6°C° 0 mm 2 mps 761 mmHg 88%
02:00 +6°C° 0 mm 2 mps 761 mmHg 87%
03:00 +5°C° 0 mm 2 mps 761 mmHg 86%
04:00 +5°C° 0 mm 2 mps 762 mmHg 85%
05:00 +5°C° 0 mm 2 mps 762 mmHg 85%
06:00 +6°C° 0 mm 2 mps 762 mmHg 78%
07:00 +8°C° 0 mm 3 mps 762 mmHg 72%
08:00 +9°C° 0 mm 3 mps 762 mmHg 66%
09:00 +11°C° 0 mm 3 mps 762 mmHg 62%
10:00 +12°C° 0 mm 4 mps 762 mmHg 57%
11:00 +14°C° 0 mm 4 mps 761 mmHg 53%
12:00 +14°C° 0 mm 4 mps 761 mmHg 52%
13:00 +14°C° 0 mm 5 mps 761 mmHg 52%
14:00 +15°C° 0 mm 5 mps 760 mmHg 51%
15:00 +14°C° 0 mm 5 mps 760 mmHg 56%
16:00 +13°C° 0 mm 5 mps 759 mmHg 60%
17:00 +12°C° 0 mm 4 mps 759 mmHg 65%
18:00 +11°C° 0 mm 4 mps 759 mmHg 68%
19:00 +10°C° 0 mm 4 mps 758 mmHg 71%
20:00 +8°C° 0 mm 4 mps 758 mmHg 74%
21:00 +8°C° 0 mm 4 mps 758 mmHg 77%
22:00 +8°C° 0 mm 3 mps 758 mmHg 80%
23:00 +8°C° 0 mm 3 mps 757 mmHg 82%

Day after tomorrow, 13 April, Tuesday

Time Temperature Precipitation Wind Pressure Humidity
00:00 +7°C° 0 mm 3 mps 757 mmHg 86%
01:00 +7°C° 0 mm 3 mps 757 mmHg 89%
02:00 +6°C° 0 mm 2 mps 757 mmHg 92%
03:00 +6°C° 0 mm 2 mps 756 mmHg 93%
04:00 +6°C° 0 mm 2 mps 756 mmHg 95%
05:00 +6°C° 0 mm 2 mps 756 mmHg 96%
06:00 +7°C° 0 mm 2 mps 756 mmHg 91%
07:00 +8°C° 0 mm 2 mps 756 mmHg 87%
08:00 +10°C° 0 mm 2 mps 755 mmHg 82%
09:00 +12°C° 0 mm 2 mps 755 mmHg 75%
10:00 +13°C° 0 mm 3 mps 755 mmHg 68%
11:00 +16°C° 0 mm 3 mps 755 mmHg 61%
12:00 +17°C° 0 mm 3 mps 754 mmHg 58%
13:00 +18°C° 0 mm 3 mps 754 mmHg 54%
14:00 +19°C° 0 mm 4 mps 754 mmHg 51%
15:00 +18°C° 0 mm 3 mps 754 mmHg 56%
16:00 +17°C° 0 mm 3 mps 754 mmHg 60%
17:00 +17°C° 0 mm 2 mps 753 mmHg 65%
18:00 +16°C° 0 mm 2 mps 753 mmHg 69%
19:00 +14°C° 0 mm 2 mps 754 mmHg 72%
20:00 +13°C° 0 mm 2 mps 754 mmHg 76%
21:00 +13°C° 0 mm 2 mps 753 mmHg 77%
22:00 +12°C° 0 mm 2 mps 753 mmHg 78%
23:00 +10°C° 0 mm 2 mps 753 mmHg 80%

14 April, Wednesday

Time Temperature Precipitation Wind Pressure Humidity
00:00 +10°C° 0 mm 2 mps 753 mmHg 80%
01:00 +9°C° 0 mm 2 mps 753 mmHg 81%
02:00 +9°C° 0 mm 2 mps 753 mmHg 81%
03:00 +9°C° 0 mm 2 mps 753 mmHg 80%
04:00 +8°C° 0 mm 2 mps 753 mmHg 80%
05:00 +8°C° 0 mm 2 mps 753 mmHg 79%
06:00 +10°C° 0 mm 2 mps 752 mmHg 72%
07:00 +12°C° 0 mm 3 mps 752 mmHg 65%
08:00 +13°C° 0 mm 3 mps 752 mmHg 59%
09:00 +16°C° 0 mm 3 mps 752 mmHg 55%
10:00 +17°C° 0 mm 4 mps 752 mmHg 52%
11:00 +18°C° 0 mm 4 mps 752 mmHg 49%
12:00 +19°C° 0 mm 4 mps 752 mmHg 48%
13:00 +19°C° 0 mm 4 mps 752 mmHg 47%
14:00 +20°C° 0 mm 3 mps 751 mmHg 46%
15:00 +19°C° 0 mm 3 mps 751 mmHg 50%
16:00 +18°C° 0 mm 3 mps 751 mmHg 54%
17:00 +17°C° 0 mm 2 mps 751 mmHg 58%
18:00 +16°C° 0 mm 2 mps 751 mmHg 62%
19:00 +14°C° 0 mm 2 mps 751 mmHg 66%
20:00 +13°C° 0 mm 2 mps 751 mmHg 69%
21:00 +12°C° 0 mm 2 mps 751 mmHg 73%
22:00 +10°C° 0 mm 2 mps 751 mmHg 78%
23:00 +9°C° 0 mm 2 mps 751 mmHg 82%

15 April, Thursday

Time Temperature Precipitation Wind Pressure Humidity
00:00 +8°C° 0 mm 2 mps 751 mmHg 85%
01:00 +7°C° 0 mm 3 mps 751 mmHg 88%
02:00 +5°C° 0 mm 3 mps 751 mmHg 91%
03:00 +5°C° 0 mm 3 mps 751 mmHg 91%
04:00 +4°C° 0 mm 3 mps 751 mmHg 91%
05:00 +4°C° 0 mm 3 mps 751 mmHg 91%
06:00 +4°C° 0 mm 4 mps 752 mmHg 89%
07:00 +4°C° 0 mm 4 mps 752 mmHg 86%
08:00 +5°C° 0 mm 4 mps 752 mmHg 84%
09:00 +5°C° 0.1 mm 4 mps 752 mmHg 83%
10:00 +5°C° 0.1 mm 4 mps 752 mmHg 82%
11:00 +5°C° 0.1 mm 4 mps 752 mmHg 81%
12:00 +5°C° 0 mm 5 mps 752 mmHg 81%
13:00 +5°C° 0 mm 5 mps 753 mmHg 82%
14:00 +3°C° 0 mm 5 mps 753 mmHg 83%
15:00 +3°C° 0 mm 5 mps 753 mmHg 86%
16:00 +2°C° 0 mm 5 mps 753 mmHg 88%
17:00 +1°C° 0 mm 5 mps 754 mmHg 91%
18:00 +3°C° 0.2 mm 4 mps 754 mmHg 88%
19:00 +3°C° 0.2 mm 4 mps 755 mmHg 85%
20:00 +3°C° 0.2 mm 4 mps 755 mmHg 81%
21:00 +1°C° 0 mm 4 mps 755 mmHg 77%
22:00 +1°C° 0 mm 4 mps 755 mmHg 72%
23:00 0°C° 0 mm 4 mps 756 mmHg 68%

16 April, Friday

Time Temperature Precipitation Wind Pressure Humidity
00:00 0°C° 0 mm 4 mps 756 mmHg 70%
01:00 -1°C° 0 mm 4 mps 756 mmHg 73%
02:00 -1°C° 0 mm 5 mps 757 mmHg 75%
03:00 -2°C° 0 mm 5 mps 757 mmHg 77%
04:00 -2°C° 0 mm 5 mps 757 mmHg 79%
05:00 -2°C° 0 mm 5 mps 758 mmHg 81%
06:00 -1°C° 0 mm 5 mps 758 mmHg 74%
07:00 0°C° 0 mm 5 mps 758 mmHg 68%
08:00 +1°C° 0 mm 6 mps 759 mmHg 61%
09:00 +2°C° 0 mm 6 mps 759 mmHg 55%
10:00 +3°C° 0 mm 6 mps 759 mmHg 49%
11:00 +4°C° 0 mm 6 mps 760 mmHg 42%
12:00 +4°C° 0 mm 6 mps 760 mmHg 41%
13:00 +4°C° 0 mm 6 mps 760 mmHg 39%
14:00 +5°C° 0 mm 6 mps 760 mmHg 38%
15:00 +5°C° 0 mm 5 mps 760 mmHg 40%
16:00 +5°C° 0 mm 5 mps 760 mmHg 43%
17:00 +3°C° 0 mm 5 mps 760 mmHg 46%
18:00 +3°C° 0 mm 4 mps 761 mmHg 51%
19:00 +2°C° 0 mm 3 mps 761 mmHg 56%
20:00 +1°C° 0 mm 3 mps 761 mmHg 62%
21:00 0°C° 0 mm 3 mps 761 mmHg 66%
22:00 -1°C° 0 mm 2 mps 762 mmHg 70%
23:00 -1°C° 0 mm 2 mps 762 mmHg 74%
Show more